DW7011 Weather Reports


time (UTC)temp
C
wind
direction
speed
KPH
gust
KPH
rain 1hr
cm
rain 24hr
cm
rain mn
cm
humidity
%
barometer
mb
20260507030342 15 2 8.0 16.1 0.00 0.51 0.51 80 1010.6
20260507025339 15 4 1.6 12.9 0.00 0.51 0.51 79 1010.8
20260507024337 15 323 4.8 11.3 0.00 0.51 0.51 79 1010.6
20260507023325 15 335 1.6 9.7 0.00 0.51 0.51 79 1010.2
20260507022351 15 308 3.2 8.0 0.00 0.51 0.51 80 1010.3
20260507021333 15 291 4.8 9.7 0.00 0.51 0.51 79 1010.2
20260507020331 15 359 4.8 9.7 0.00 0.51 0.51 79 1010.2
20260507015325 16 301 6.4 12.9 0.00 0.51 0.51 77 1010.4
20260507013337 16 313 4.8 14.5 0.00 0.51 0.51 79 1010.6
20260507012349 16 285 3.2 11.3 0.00 0.51 0.51 81 1010.6
20260507011335 16 312 6.4 12.9 0.00 0.51 0.51 81 1010.3
20260507010331 16 321 3.2 12.9 0.03 0.51 0.51 81 1010.3
20260507005325 17 290 3.2 14.5 0.03 0.51 0.51 82 1009.9
20260507004343 17 40 6.4 16.1 0.03 0.51 0.51 82 1009.9
20260507002327 18 252 4.8 9.7 0.03 0.51 0.51 86 1009.6
20260507001325 18 277 3.2 9.7 0.03 0.51 0.51 84 1009.1
20260507000343 18 222 3.2 6.4 0.00 0.48 0.48 81 1008.7
20260506235337 19 270 4.8 9.7 0.00 0.48 0.48 80 1008.6
20260506234327 19 288 6.4 12.9 0.00 0.48 0.48 80 1008.6
20260506233341 19 243 3.2 6.4 0.00 0.48 0.48 80 1008.5
20260506232339 19 242 3.2 8.0 0.00 0.48 0.48 79 1008.5
20260506231338 19 245 3.2 12.9 0.00 0.48 0.48 79 1008.4
20260506230325 19 269 3.2 6.4 0.00 0.48 0.48 79 1008.4
20260506225322 20 250 1.6 6.4 0.00 0.48 0.48 79 1008.3
20260506224340 20 276 3.2 6.4 0.00 0.48 0.48 78 1008.3
20260506223331 20 272 4.8 9.7 0.00 0.48 0.48 77 1008.2
20260506222348 20 243 4.8 9.7 0.00 0.48 0.48 79 1008.3
20260506221339 20 269 1.6 3.2 0.00 0.48 0.48 80 1008.4
20260506220334 20 224 0.0 3.2 0.00 0.48 0.48 80 1008.0
20260506215330 20 147 1.6 4.8 0.00 0.48 0.48 79 1007.9
20260506213341 20 284 0.0 4.8 0.00 0.48 0.48 78 1008.0
20260506212326 20 117 1.6 6.4 0.00 0.48 0.48 78 1007.8
20260506210343 20 276 4.8 9.7 0.00 0.48 0.48 79 1007.7
20260506203347 19 281 6.4 16.1 0.00 0.48 0.48 80 1007.7
20260506202333 19 264 6.4 14.5 0.00 0.48 0.48 79 1007.7
20260506201331 19 274 3.2 11.3 0.00 0.48 0.48 79 1007.7
20260506195340 20 259 4.8 14.5 0.00 0.48 0.48 77 1007.6
20260506194337 19 276 4.8 12.9 0.00 0.48 0.48 78 1007.7
20260506193325 19 217 6.4 14.5 0.00 0.48 0.48 78 1007.8
20260506191335 19 269 6.4 11.3 0.00 0.48 0.48 79 1007.8
20260506190330 19 221 8.0 19.3 0.00 0.48 0.48 80 1007.9
20260506185327 18 257 4.8 14.5 0.00 0.48 0.48 81 1008.0
20260506184345 18 240 3.2 16.1 0.00 0.48 0.48 83 1008.0
20260506182330 17 250 6.4 14.5 0.00 0.48 0.48 85 1008.3
20260506181349 17 281 3.2 9.7 0.00 0.48 0.48 86 1008.5
20260506180333 17 308 3.2 8.0 0.03 0.48 0.48 88 1008.6
20260506175330 16 282 3.2 9.7 0.03 0.48 0.48 88 1008.7
20260506174327 16 255 4.8 11.3 0.03 0.48 0.48 88 1008.8
20260506173344 16 228 4.8 12.9 0.03 0.48 0.48 88 1008.7
20260506172326 16 257 4.8 16.1 0.03 0.48 0.48 88 1008.7
20260506171343 16 264 8.0 19.3 0.03 0.48 0.48 88 1008.6
20260506170339 16 248 3.2 16.1 0.00 0.46 0.46 89 1008.5
20260506165335 16 231 4.8 12.9 0.00 0.46 0.46 89 1008.6
20260506164353 16 244 3.2 9.7 0.00 0.46 0.46 89 1008.5
20260506163322 16 193 4.8 14.5 0.03 0.46 0.46 89 1008.8
20260506162339 16 245 4.8 11.3 0.05 0.46 0.46 89 1008.8
20260506161336 16 252 3.2 12.9 0.08 0.46 0.46 90 1008.9
20260506160333 16 223 4.8 17.7 0.10 0.46 0.46 90 1008.8
20260506155349 16 27 1.6 17.7 0.13 0.46 0.46 91 1008.6
20260506153337 16 191 3.2 19.3 0.20 0.43 0.43 90 1008.6
20260506152323 16 135 3.2 9.7 0.20 0.41 0.41 90 1009.2
20260506151342 16 245 3.2 8.0 0.15 0.36 0.36 90 1009.5
20260506145332 16 236 1.6 8.0 0.18 0.30 0.30 89 1009.7
20260506144327 16 264 3.2 9.7 0.15 0.25 0.25 88 1009.7
20260506142338 16 18 3.2 14.5 0.18 0.20 0.20 88 1009.3
20260506141327 16 239 3.2 6.4 0.18 0.20 0.20 88 1009.2
20260506140341 16 53 3.2 9.7 0.15 0.18 0.18 87 1009.3
20260506134332 16 346 0.0 6.4 0.10 0.10 0.10 85 1009.3
20260506132342 17 260 1.6 9.7 0.03 0.03 0.03 83 1009.2
20260506130328 17 206 3.2 9.7 0.03 0.03 0.03 80 1009.4
20260506124338 17 233 3.2 9.7 0.00 0.00 0.00 78 1009.5
20260506122330 17 274 3.2 9.7 0.00 0.00 0.00 79 1009.8
20260506121343 17 249 3.2 11.3 0.00 0.00 0.00 78 1009.8
20260506115348 17 237 3.2 6.4 0.00 0.00 0.00 78 1009.5
20260506114338 17 276 1.6 12.9 0.00 0.00 0.00 77 1009.1
20260506113334 17 244 3.2 9.7 0.00 0.00 0.00 77 1009.2
20260506111330 17 254 3.2 8.0 0.00 0.00 0.00 76 1009.0
20260506110347 18 255 3.2 11.3 0.00 0.00 0.00 75 1008.9
20260506105335 18 135 3.2 8.0 0.00 0.00 0.00 75 1008.7
20260506104332 18 274 3.2 11.3 0.00 0.00 0.00 75 1008.7
20260506103342 18 258 3.2 11.3 0.00 0.00 0.00 75 1008.7
20260506102338 18 136 4.8 12.9 0.00 0.00 0.00 75 1008.6
20260506101326 18 226 1.6 11.3 0.00 0.00 0.00 74 1008.5
20260506100342 18 270 3.2 8.0 0.00 0.00 0.00 74 1008.4
20260506095340 18 83 3.2 11.3 0.00 0.00 0.00 74 1008.4
20260506094338 18 291 3.2 9.7 0.00 0.00 0.00 74 1008.4
20260506093350 18 245 3.2 6.4 0.00 0.00 0.00 73 1008.4
20260506092337 18 109 1.6 8.0 0.00 0.00 0.00 72 1008.5
20260506091334 18 6 1.6 6.4 0.00 0.00 0.00 72 1008.6
20260506090330 17 281 3.2 16.1 0.00 0.00 0.00 72 1008.6
20260506085351 17 352 1.6 3.2 0.00 0.00 0.00 72 1008.6
20260506084335 17 19 0.0 3.2 0.00 0.00 0.00 72 1008.7
20260506082328 18 197 0.0 3.2 0.00 0.00 0.00 70 1008.7
20260506080323 18 119 1.6 4.8 0.00 0.00 0.00 67 1008.7
20260506073324 19 276 1.6 6.4 0.00 0.00 0.00 64 1008.8
20260506072342 19 229 0.0 6.4 0.00 0.00 0.00 64 1008.8
20260506070331 19 224 1.6 4.8 0.00 0.00 0.00 63 1008.9
20260506062327 19 27 1.6 3.2 0.00 0.00 0.00 61 1009.4
20260506060338 19 330 0.0 4.8 0.00 0.00 0.00 61 1009.6
20260506051326 20 266 1.6 11.3 0.00 0.00 0.00 57 1009.9
20260506050322 20 176 1.6 12.9 0.00 0.00 0.00 57 1009.8
20260506044336 20 263 1.6 6.4 0.00 0.00 0.00 57 1009.8
20260506043323 20 104 1.6 8.0 0.00 0.00 0.00 56 1009.8
20260506042340 20 4 1.6 6.4 0.00 0.00 0.00 55 1010.0
20260506041333 20 288 1.6 6.4 0.00 0.00 0.00 55 1009.9
20260506040326 20 229 3.2 9.7 0.00 0.00 0.00 55 1010.0
20260506035342 20 123 1.6 8.0 0.00 0.00 0.00 56 1009.9
20260506032347 20 268 1.6 6.4 0.00 0.00 0.00 55 1009.8
20260506031349 20 125 0.0 6.4 0.00 0.00 0.00 55 1009.9